TimeEDT,TemperatureF,Dew PointF,Humidity,Sea Level PressureIn,VisibilityMPH,Wind Direction,Wind SpeedMPH,Gust SpeedMPH,PrecipitationIn,Events,Conditions,WindDirDegrees,DateUTC
12:51 AM,57.0,41.0,55,30.36,10.0,South,5.8,-,N/A,,Clear,170,2013-05-04 04:51:00
1:51 AM,55.9,41.0,57,30.35,10.0,SSE,5.8,-,N/A,,Clear,150,2013-05-04 05:51:00
2:51 AM,54.0,41.0,62,30.33,10.0,Calm,Calm,-,N/A,,Clear,0,2013-05-04 06:51:00
3:51 AM,50.0,41.0,71,30.34,10.0,Calm,Calm,-,N/A,,Clear,0,2013-05-04 07:51:00
4:51 AM,46.9,41.0,80,30.33,10.0,Calm,Calm,-,N/A,,Clear,0,2013-05-04 08:51:00
5:51 AM,46.0,39.9,79,30.34,10.0,Calm,Calm,-,N/A,,Clear,0,2013-05-04 09:51:00
6:51 AM,50.0,43.0,77,30.34,10.0,Calm,Calm,-,N/A,Fog,Patches of Fog,0,2013-05-04 10:51:00
7:51 AM,54.0,43.0,66,30.35,10.0,Calm,Calm,-,N/A,,Clear,0,2013-05-04 11:51:00
8:51 AM,57.9,44.1,60,30.34,10.0,Calm,Calm,-,N/A,,Clear,0,2013-05-04 12:51:00
9:51 AM,62.1,44.1,52,30.33,10.0,Calm,Calm,-,N/A,,Clear,0,2013-05-04 13:51:00
10:51 AM,64.9,44.1,47,30.32,10.0,WNW,3.5,-,N/A,,Partly Cloudy,300,2013-05-04 14:51:00
11:51 AM,68.0,43.0,40,30.29,10.0,Variable,5.8,-,N/A,,Partly Cloudy,0,2013-05-04 15:51:00
12:51 PM,71.1,43.0,36,30.27,10.0,ENE,5.8,-,N/A,,Partly Cloudy,70,2013-05-04 16:51:00
1:51 PM,72.0,42.1,34,30.25,10.0,Variable,3.5,-,N/A,,Partly Cloudy,0,2013-05-04 17:51:00
2:51 PM,73.9,41.0,30,30.22,10.0,NNW,4.6,-,N/A,,Partly Cloudy,340,2013-05-04 18:51:00
3:51 PM,75.0,41.0,29,30.19,10.0,North,5.8,-,N/A,,Partly Cloudy,10,2013-05-04 19:51:00
4:51 PM,75.0,39.9,28,30.18,10.0,Calm,Calm,-,N/A,,Partly Cloudy,0,2013-05-04 20:51:00
5:51 PM,75.9,39.0,26,30.17,10.0,NNW,6.9,-,N/A,,Partly Cloudy,340,2013-05-04 21:51:00
6:51 PM,75.0,36.0,24,30.16,10.0,Calm,Calm,-,N/A,,Partly Cloudy,0,2013-05-04 22:51:00
7:51 PM,72.0,32.0,23,30.17,10.0,SSE,6.9,-,N/A,,Partly Cloudy,150,2013-05-04 23:51:00
8:51 PM,68.0,30.9,25,30.20,10.0,SE,8.1,-,N/A,,Partly Cloudy,140,2013-05-05 00:51:00
9:51 PM,64.9,30.9,28,30.22,10.0,SSE,8.1,-,N/A,,Clear,150,2013-05-05 01:51:00
10:51 PM,63.0,27.0,26,30.23,10.0,South,11.5,-,N/A,,Clear,170,2013-05-05 02:51:00
11:51 PM,59.0,41.0,51,30.25,10.0,South,10.4,19.6,N/A,,Clear,170,2013-05-05 03:51:00